Volver al catálogo

STARLINK-30867

ActivoComunicacionesVLEO
NORAD 58231·PAYLOAD·🇺🇸 United States

Lanzado Nov 8, 2023 desde Cape Canaveral Space Force Station

Loading…

Próximos Pases (próximas 24 horas)

TLE

ActualizadoSource: CelesTrak SupGP

Época: Sep 14, 2026, 22:00 UTC

1 58231C 23171B   26257.91715278 -.00009128  00000+0 -33065-3 0  2573
2 58231  43.0021 296.2693 0001396 259.9716 259.2880 15.27578994    18

Sigue STARLINK-30867 en tiempo real con AllMySat

Download on the App Store